CZ-6A DEB, 61122

Orbit data source: Space-Track

CZ-6A DEB, 61122 is space debris in LEO originally from a launch on Tue, 06 Aug 2024 UTC launched from the Taiyaun Space Center, China (TSC). Debris objects in space refer to the collection of defunct objects orbiting the Earth. Examples of debris include non-operational satellites, rocket bodies, and fragments generated from explosions, collisions, or faulty payload assembly.

Loading next visibility...
Identifier
61122, 2024-140PQ
Orbit
LEO
Country
Flag of CNCN / PRC
Related business
Manufacturer
SAST
Mission
Spacecraft
Bus & Motor
Unknown
Mass
Unknown
Launch date (UTC)
2024-08-06 (1 year ago)
Launch vehicle
Unknown
Launch site
Taiyaun Space Center, China (TSC)
Object type
Payload
Rocket body
Debris
Shape & HBR
Unknown shape, 0.2 m
Radar Cross Section
Small (<0.1 m²)

Expand to show TLE details & history
Last TLE update: 20 hours ago

TLE from 20 hours ago
0 CZ-6A DEB
1 61122U 24140PQ  25312.67802609  .00004055  00000-0  85295-3 0  9990
2 61122  89.0204 297.9280 0116976 303.2182  55.7856 14.55153586 63731
Epoch: 2025-11-08T16:16Z
TLE epoch observation values (Epoch: 2025-11-08T16:16:21.454Z)
Latitude
0.00001°
Longitude
5.73441°
Altitude
666.015 km
Speed
7.548 km/s
True Right ascension
19h 51m 42s
True Declination
0° 00' 00"
Sunlit
Object was in daylight at epoch
Visualization orbit readout
Latitude
Unknown
Longitude
Unknown
Altitude
Unknown
Speed
Unknown
Apparent Right ascension
Unknown
Apparent Declination
Unknown
Sunlit
N/A
Visualization observer readout
Local Sidereal Time
08:50:45
Azimuth
Unknown
Elevation
Unknown
Doppler factor
Unknown
Orbital elements
Apogee altitude
788.631 km
Perigee altitude
622.902 km
Semi-major axis
7,083.903 km
Eccentricity
0.0117
Inclination
89.0204°
RAAN
297.928°
Arg. of periapsis
303.2182°
True anomaly
56.90318°
Mean anomaly
55.7856°
Eccentric anomaly
56.34348°
Mean motion
3.64028 °/min
Orbital period
98.89 mins
BSTAR
0.00085295
Loading maneuver chart data...
Computing Atmospheric mass density...
Loading historical data...
Loading historical data...
Loading historical data...
Loading historical data...
Loading historical data...
Loading historical data...
Loading historical data...

Documentation

Showing up to 5 results
|